THORAD DELTA 1 DEB, 8152

Orbit data source: Space-Track

THORAD DELTA 1 DEB, 8152 is space debris in SSO originally from a launch on Fri, 15 Nov 1974 UTC launched from the Air Force Western Test Range (AFWTR). Debris objects in space refer to the collection of defunct objects orbiting the Earth. Examples of debris include non-operational satellites, rocket bodies, and fragments generated from explosions, collisions, or faulty payload assembly.

Loading next visibility...
Identifier
8152, 1974-089S
Orbit
SSO
Country
Flag of USUS
Related business
Manufacturer
Unknown
Mission
Spacecraft
Bus & Motor
Unknown
Mass
Unknown
Launch date (UTC)
1974-11-15 (51 years ago)
Launch vehicle
Unknown
Launch site
Air Force Western Test Range (AFWTR)
Object type
Payload
Rocket body
Debris
Shape & HBR
Unknown shape, 0.1 m
Radar Cross Section
Small (<0.1 m²)

Expand to show TLE details & history
Last TLE update: 1 day ago

TLE from 1 day ago
0 THORAD DELTA 1 DEB
1 08152U 74089S   26104.01602781  .00000028  00000-0  42075-3 0  9993
2 08152 101.8516 111.9774 0060456 117.3646 267.8144 12.60136780362602
Epoch: 2026-04-14T00:23Z
TLE epoch observation values (Epoch: 2026-04-14T00:23:04.802Z)
Latitude
23.95594°
Longitude
-101.31442°
Altitude
1,427.067 km
Speed
7.149 km/s
True Right ascension
07h 06m 36s
True Declination
23° 50' 22"
Sunlit
Object was in daylight at epoch
Visualization orbit readout
Latitude
Unknown
Longitude
Unknown
Altitude
Unknown
Speed
Unknown
Apparent Right ascension
Unknown
Apparent Declination
Unknown
Sunlit
N/A
Visualization observer readout
Local Sidereal Time
08:06:48
Azimuth
Unknown
Elevation
Unknown
Doppler factor
Unknown
Orbital elements
Apogee altitude
1,467.063 km
Perigee altitude
1,372.775 km
Semi-major axis
7,798.056 km
Eccentricity
0.00605
Inclination
101.8516°
RAAN
111.9774°
Arg. of periapsis
117.3646°
True anomaly
267.12235°
Mean anomaly
267.8144°
Eccentric anomaly
267.46835°
Mean motion
3.15184 °/min
Orbital period
114.22 mins
BSTAR
0.00042075
Loading maneuver chart data...
Computing Atmospheric mass density...

Documentation

Showing up to 5 results
|